User: anonymous   Login
Location: Caltech
(34.1382°N, 118.1253°W)
Time: 03:43:23
(UTC-08:00)
Language:

Cosmos 1758 Rocket - Orbit

View from above orbital plane
View from above orbital plane
View from above satellite
View from above satellite

Ground track
Ground track

The orbit data is extracted from the following two-line orbital elements,

1 16792U 86046B   15032.19818521  .00000461  00000-0  53906-4 0  6923
2 16792 082.4842 298.0393 0022904 266.3381 246.7294 14.82800537546383
Epoch (UTC): 01 February 2015 04:45:23
Eccentricity: 0.0022904
inclination: 82.4842°
perigee height: 604 km
apogee height: 636 km
right ascension of ascending node: 298.0393°
argument of perigee: 266.3381°
revolutions per day: 14.82800537
mean anomaly at epoch: 246.7294°
orbit number at epoch: 54638

The dashed part of the orbit path shows where the satellite is in the earth's shadow,  

DLR